Weather Roundup
Issued by NWS Springfield, MO

Home | Current Version | Previous Version | Text Only | Print | Product List | Glossary On
Versions: 1 2 3 4 5 6 7 8 9 10 11 12 13 14 15 16 17 18 19 20 21 22 23 24 25 26 27 28 29 30 31 32 33 34 35 36 37 38 39 40 41 42 43 44 45 46 47 48 49 50
000
NZUS99 KSGF 270907
HRRSGF

HOURLY WEATHER
NATIONAL WEATHER SERVICE SPRINGFIELD MO
400 AM CDT THU JUL 27 2017

......SGF CWA......

CITY           SKY/WX    TMP DP  RH WIND       PRES   REMARKS
SPRINGFIELD    CLOUDY    80  73  79 SW6       29.98R
JOPLIN         CLOUDY    82  75  79 SW8       29.97R
WEST PLAINS    PTCLDY    78  71  79 SW5       30.02S
ROLLA          LGT RAIN  73  73 100 NW9       29.99F
OSAGE BEACH    HVY RAIN  72  71  97 CALM      30.00S
BRANSON          N/A     79  68  69 SW8       30.00F

......SURROUNDING SGF CWA......

CITY           SKY/WX    TMP DP  RH WIND       PRES   REMARKS
CHANUTE        CLOUDY    79  75  87 S12       29.93S
PARSONS          N/A     81  74  79 SE6       29.94
COFFEYVILLE    CLOUDY    80  75  84 S10       29.91F
EMPORIA        CLOUDY    75  74  96 NE5       29.93S FOG
GROVE OK       CLOUDY    82  72  69 SW7       29.96S
ROGERS AR      CLOUDY    80  71  74 SW9       30.00S
SILOAM SPRINGS CLOUDY    79  70  73 SW10      29.98F
HARRISON AR    CLOUDY    78  69  73 S3        30.01F
NEAR YELLVILLE CLOUDY    75  66  73 CALM      29.97S

......KANSAS AND MISSOURI......

CITY           SKY/WX    TMP DP  RH WIND       PRES   REMARKS
KANSAS CTY INT LGT RAIN  74  73  97 NE7       29.93F
DOWNTOWN KC    TSTM      75  75 100 E5        29.92F
SEDALIA        LGT RAIN  73  73 100 W5        29.98F FOG
ST JOSEPH      CLOUDY    76  76 100 N7        29.95S
ST LOUIS       TSTM      77  73  87 N5        29.96R
SPIRIT OF STL  LGT RAIN  75  75 100 E3        29.92F
KIRKSVILLE     CLOUDY    75  74  96 NE3       29.96R
WICHITA        MOCLDY    80  72  76 S8        29.92F
TOPEKA         CLOUDY    75  75 100 N5        29.94R
OLATHE         TSTM      73  73 100 NE13G23   29.93F VSB 3/4

......TENNESSEE......

CITY           SKY/WX    TMP DP  RH WIND       PRES   REMARKS
MEMPHIS        PTCLDY    79  73  82 SW9       30.00S
NASHVILLE      MOCLDY    80  72  76 SW3       30.00F

......ARKANSAS.......

CITY           SKY/WX    TMP DP  RH WIND       PRES   REMARKS
FAYETTEVILLE   CLOUDY    77  72  84 SW3       30.00F
FT SMITH       CLEAR     78  74  87 CALM      29.97F
LITTLE ROCK    CLEAR     78  76  93 W5        29.99S

......OKLAHOMA.......

CITY           SKY/WX    TMP DP  RH WIND       PRES   REMARKS
TULSA          LGT RAIN  85  73  67 S8        29.93S HX  91
PONCA CITY     LGT RAIN  80  73  79 S8        29.94S
MCALESTER      CLEAR     82  72  71 S8        29.98F
OKLAHOMA CITY  CLOUDY    79  68  69 SW5       29.98R

......IOWA............

CITY           SKY/WX    TMP DP  RH WIND       PRES   REMARKS
DES MOINES     PTCLDY    71  69  93 N5        29.97S
QUAD CITIES    MOCLDY    73  70  90 NW6       29.92S

......ILLINOIS........

CITY           SKY/WX    TMP DP  RH WIND       PRES   REMARKS
QUINCY         CLOUDY    76  74  93 SE6       29.93S
CHICAGO        CLOUDY    74  70  87 N8        29.90R




USA.gov is the U.S. government's official web portal to all federal, state and local government web resources and services.